Wind_Speed
11 12 12 11 11 11 11 11 11 11 11 11 12 13 13 13 13 13 13 13 13 13 14 14 14 15 16 17 18 19 20 21 23 24 24 25 26 27 27 28 30 30 31 32
12 13 14 13 12 12 12 12 12 12 12 13 14 14 14 14 14 14 14 14 14 15 15 16 16 17 18 19 20 21 22 24 25 25 26 27 28 29 29 30 31 32 33 33
13 14 14 13 13 14 14 13 13 13 13 14 15 15 15 15 15 15 15 15 15 16 17 17 18 19 20 21 22 24 25 26 26 27 28 29 29 30 31 32 32 33 34 35
14 15 15 13 14 15 15 15 15 15 15 16 16 16 16 16 16 16 16 16 16 17 18 19 20 21 22 24 25 26 27 28 28 29 29 30 31 32 32 33 34 34 35 36
16 16 15 14 15 16 17 16 16 17 17 17 16 16 16 17 16 17 18 18 18 19 20 22 23 24 25 26 27 28 29 30 30 31 31 32 32 33 34 34 35 36 36 37
18 18 17 15 17 18 17 17 17 18 18 17 17 17 17 18 18 19 19 20 21 21 22 24 25 25 27 28 29 30 30 31 31 32 33 33 34 35 36 37 37 38 38 38
19 19 17 17 18 18 18 17 18 19 19 19 19 19 19 19 20 21 21 22 23 24 25 26 27 28 29 30 31 31 32 33 33 34 35 35 36 37 38 39 39 40 40 40
20 20 18 19 19 20 19 20 20 20 20 20 20 21 21 22 23 23 24 25 25 26 27 28 29 29 30 32 32 33 34 34 35 36 36 37 38 39 40 40 40 41 41 42
22 21 21 21 22 22 22 22 22 23 23 23 23 23 24 24 25 26 27 27 28 29 29 30 31 32 33 34 34 35 36 36 37 38 39 40 40 41 41 42 42 42 43 43
24 23 24 24 24 25 25 25 25 25 25 26 26 26 26 27 27 28 30 30 31 31 32 32 33 34 35 35 36 37 38 39 39 40 41 42 43 43 44 44 44 44 45 45
26 26 27 27 27 28 28 28 28 29 29 29 29 29 30 30 31 31 32 33 33 33 34 35 35 36 37 38 39 39 40 41 42 43 44 44 45 45 46 46 46 46 46 46
29 29 30 29 30 30 31 31 31 32 32 32 32 32 32 33 33 34 34 35 35 35 36 37 38 38 39 40 40 41 42 43 43 44 45 45 46 46 47 48 48 48 48 48
32 32 32 32 32 33 33 33 33 33 33 34 34 35 35 35 36 36 36 37 37 38 38 39 40 41 42 42 42 43 44 44 45 45 46 46 47 47 48 48 49 49 49 50
34 34 33 33 34 34 34 34 35 35 35 35 36 37 37 37 38 38 39 39 40 41 41 42 42 43 44 44 45 45 45 46 46 46 47 47 48 49 49 50 50 50 51 51
35 35 35 35 35 35 35 35 36 36 37 37 38 38 38 39 39 39 40 41 42 43 43 44 44 45 46 46 46 46 46 47 47 47 48 48 49 51 51 52 52 52 52 52
35 36 36 36 36 36 36 36 36 37 38 39 39 39 40 40 40 41 42 43 43 44 45 45 46 46 47 47 47 47 48 48 48 49 49 50 52 52 53 53 53 53 53 53
35 36 37 37 37 37 37 37 38 38 39 39 40 40 41 41 42 42 43 44 45 46 47 47 47 47 48 48 48 48 49 50 50 51 52 53 53 54 55 55 54 54 54 55
36 36 37 38 38 39 39 39 40 40 40 41 41 42 43 43 44 45 46 46 47 47 48 48 48 48 49 49 50 50 51 51 52 53 54 54 55 56 56 56 56 56 55 56
38 38 39 39 39 40 40 40 41 42 42 43 43 44 45 45 46 46 47 48 49 49 49 49 50 50 51 51 51 51 52 53 54 54 55 56 56 57 57 56 56 57 57 57
39 39 39 40 41 41 42 42 43 43 44 45 45 46 46 47 48 48 49 49 50 50 51 51 52 52 52 52 52 53 53 54 55 55 56 57 58 58 58 58 58 58 58 57
41 41 41 42 43 43 44 44 45 45 46 47 47 48 49 49 50 50 50 50 51 51 52 52 53 53 53 54 54 55 55 56 56 57 58 58 59 59 59 59 59 58 58 57
42 43 43 43 44 44 45 46 46 47 47 48 48 49 50 51 51 52 52 53 53 53 54 54 54 55 55 56 56 56 57 57 57 57 58 59 59 59 58 58 58 57 57 56
43 43 44 44 45 45 46 47 48 48 49 49 50 50 51 52 52 53 54 54 55 55 55 55 56 56 57 57 57 58 58 58 59 59 59 59 59 58 58 57 57 57 55 54
45 45 46 46 47 47 48 49 49 50 50 50 51 51 52 53 53 54 54 55 56 56 56 56 57 57 57 58 58 59 59 59 59 59 58 58 58 58 57 56 56 55 54 54
46 46 47 48 48 49 49 50 51 51 52 52 53 53 54 55 55 55 56 56 56 57 57 57 58 58 59 59 59 59 59 59 59 58 58 57 57 57 56 56 55 55 55 54
48 48 48 49 50 51 52 52 53 53 54 54 55 55 56 56 56 57 57 57 58 58 58 58 58 59 59 59 59 58 58 58 58 57 57 57 57 56 56 55 55 54 53 52
50 50 51 51 51 52 53 54 55 55 55 56 56 56 57 57 57 57 57 57 57 56 56 57 57 57 56 56 56 56 56 56 55 55 55 55 55 55 55 54 53 52 51 50
Wind_Direction
232 231 234 236 240 246 252 255 252 247 248 249 252 253 253 257 263 266 266 265 267 270 273 276 278 281 285 288 291 294 296 298 301 302 304 306 309 311 312 314 315 317 318 319
241 242 243 245 250 255 258 259 258 252 251 253 257 258 258 260 264 268 268 268 270 273 276 279 282 284 287 289 292 294 296 299 301 302 303 305 307 308 310 311 312 314 316 317
245 246 247 246 249 255 260 262 261 259 257 259 262 261 261 263 264 266 269 272 274 276 279 281 284 286 288 290 291 293 296 298 300 301 303 305 306 307 308 310 311 313 314 315
249 249 250 250 251 255 259 261 262 260 259 259 260 261 262 263 264 267 270 273 276 279 282 283 284 286 289 290 292 294 296 298 299 301 302 304 306 307 308 309 311 312 313 314
253 255 256 255 256 257 258 259 262 262 259 259 260 262 265 267 269 270 273 275 278 281 283 284 285 287 289 291 293 295 297 298 299 299 300 302 304 306 308 309 310 311 311 312
258 259 259 259 260 261 262 262 260 260 259 260 262 265 267 270 272 274 276 277 280 282 284 286 287 288 290 292 294 295 297 297 298 298 299 301 303 304 306 308 309 309 310 310
259 261 263 263 263 263 263 261 259 261 263 265 265 266 268 271 274 277 278 279 281 283 285 286 288 288 290 292 293 295 296 296 297 298 299 301 302 304 305 307 308 308 309 309
259 261 263 263 264 263 262 261 261 262 265 267 268 268 270 272 275 278 280 281 282 284 285 286 288 289 290 292 293 294 295 296 297 298 299 300 302 303 305 306 307 307 307 308
260 262 262 262 263 263 263 262 263 264 265 267 269 271 272 274 276 278 279 281 283 284 286 287 288 289 291 292 293 294 295 296 297 298 299 300 301 302 304 305 305 306 306 306
261 262 263 263 263 263 262 263 265 265 266 268 270 272 274 275 277 280 281 282 284 285 286 287 289 290 292 293 293 294 295 296 296 297 298 299 300 302 303 303 304 304 305 305
261 262 263 264 266 265 265 265 266 267 268 269 270 272 274 276 278 280 281 283 284 285 286 288 289 290 291 293 294 294 295 296 296 297 298 299 300 301 302 302 303 303 304 304
263 264 266 267 267 267 267 267 268 269 270 271 272 273 275 277 279 280 282 283 284 285 287 288 289 290 292 293 294 295 295 296 296 297 298 298 299 300 301 302 302 302 303 303
266 266 267 268 269 269 269 269 270 270 271 272 273 275 276 278 279 281 282 283 284 286 287 289 290 291 292 293 294 295 296 296 297 297 297 298 299 300 301 301 302 302 302 302
266 267 268 268 268 269 269 269 270 271 272 273 274 275 277 278 280 281 282 283 285 287 288 289 290 290 291 292 293 294 295 296 297 297 297 298 299 300 301 301 301 301 301 302
266 267 267 267 268 268 268 268 269 271 273 274 276 277 278 279 280 281 282 284 286 287 288 289 290 290 291 292 293 293 294 295 296 296 297 298 299 300 300 301 301 301 301 301
265 267 267 268 268 269 269 270 271 272 273 275 276 277 278 279 280 282 283 285 286 287 288 289 290 290 290 291 292 292 293 294 295 295 296 297 298 299 300 300 301 301 300 301
265 266 268 268 269 270 270 271 272 273 274 276 277 278 279 280 281 282 283 285 286 288 289 289 289 289 289 290 291 291 292 293 294 295 296 297 297 298 299 300 300 300 300 301
267 267 268 269 270 271 272 273 274 275 276 277 278 279 280 281 282 283 284 285 286 288 288 288 288 289 289 290 291 291 291 292 293 294 295 296 297 298 299 299 300 300 300 301
268 269 269 270 271 272 273 274 275 276 276 277 278 279 280 281 282 283 284 285 286 287 287 288 288 289 289 290 290 291 292 292 293 294 295 295 296 297 298 299 299 300 300 301
269 270 270 271 272 273 274 275 276 277 278 278 279 280 281 281 282 283 284 285 286 286 287 287 288 288 289 289 290 291 292 292 293 293 294 295 296 297 298 299 299 300 300 300
269 269 270 271 272 273 275 276 277 278 279 280 281 281 282 282 283 284 284 285 285 286 286 287 287 288 288 289 290 291 292 293 294 294 295 295 296 297 298 298 299 299 299 299
270 270 271 272 274 274 275 276 278 279 280 281 281 282 282 283 284 284 284 285 285 286 286 287 287 287 288 289 290 291 292 293 294 295 295 296 297 297 298 298 299 299 299 299
271 271 272 273 274 275 276 277 279 280 280 281 282 282 283 284 284 285 285 285 285 286 286 287 287 287 288 289 290 291 292 293 294 294 295 296 296 297 297 297 298 298 298 298
273 274 274 274 275 276 276 277 279 280 281 281 282 283 283 284 284 285 286 286 287 287 287 288 288 288 288 289 290 291 292 292 293 294 294 295 296 296 296 296 297 298 298 297
274 275 276 276 277 277 277 278 279 280 281 282 282 283 284 285 285 286 286 287 288 288 288 288 289 289 289 290 290 291 291 292 292 293 294 295 295 296 296 296 296 297 297 297
274 275 276 277 277 278 279 280 280 280 281 282 283 284 285 286 286 287 288 289 289 289 289 289 289 289 290 290 290 291 291 292 292 292 293 294 295 296 296 296 296 296 296 297
275 276 277 278 279 280 281 281 281 281 281 282 283 284 285 286 287 287 288 289 290 290 289 289 289 289 290 291 291 291 291 291 291 292 293 293 294 295 296 296 295 295 295 295
Height
5839 5840 5840 5841 5842 5843 5843 5844 5845 5847 5847 5848 5847 5848 5849 5849 5849 5849 5849 5849 5849 5849 5849 5849 5848 5848 5847 5846 5845 5844 5842 5841 5839 5837 5834 5832 5829 5826 5823 5820 5817 5813 5809 5805
5837 5837 5838 5839 5840 5840 5841 5841 5842 5843 5844 5844 5844 5844 5845 5845 5845 5845 5845 5845 5845 5845 5845 5845 5844 5843 5843 5841 5840 5839 5837 5835 5833 5831 5828 5826 5823 5820 5817 5813 5810 5806 5802 5798
5834 5834 5835 5836 5838 5837 5838 5838 5839 5839 5841 5840 5841 5841 5841 5841 5841 5841 5841 5841 5841 5841 5840 5840 5839 5838 5837 5836 5834 5833 5831 5829 5827 5824 5821 5818 5815 5812 5809 5806 5802 5798 5794 5790
5830 5832 5832 5836 5835 5834 5835 5835 5835 5836 5836 5836 5837 5837 5837 5837 5837 5837 5837 5837 5836 5836 5835 5835 5834 5833 5832 5830 5828 5826 5824 5822 5819 5817 5814 5811 5808 5805 5801 5798 5794 5790 5786 5782
5826 5827 5828 5831 5831 5830 5831 5832 5832 5831 5831 5832 5832 5833 5833 5833 5833 5832 5832 5832 5831 5831 5830 5829 5828 5827 5825 5824 5822 5819 5817 5814 5812 5809 5806 5803 5800 5797 5793 5790 5786 5782 5777 5773
5822 5822 5824 5827 5826 5825 5827 5827 5827 5826 5827 5827 5827 5828 5829 5828 5828 5827 5827 5826 5826 5825 5824 5823 5821 5820 5818 5816 5814 5812 5809 5806 5804 5801 5798 5795 5792 5789 5785 5781 5777 5773 5768 5764
5817 5817 5819 5821 5821 5821 5823 5823 5823 5822 5822 5822 5823 5823 5823 5823 5822 5822 5821 5820 5819 5818 5817 5816 5814 5813 5811 5809 5806 5804 5801 5798 5795 5792 5789 5786 5783 5780 5776 5772 5768 5763 5759 5754
5811 5812 5816 5815 5815 5816 5816 5816 5817 5817 5817 5817 5817 5817 5817 5817 5816 5816 5815 5814 5813 5812 5810 5808 5807 5805 5803 5800 5798 5795 5792 5789 5786 5783 5780 5777 5773 5770 5766 5762 5758 5753 5749 5744
5807 5809 5809 5808 5809 5809 5810 5810 5811 5811 5811 5811 5811 5811 5811 5810 5809 5809 5808 5807 5805 5804 5802 5800 5798 5796 5794 5791 5788 5786 5783 5780 5777 5773 5770 5767 5763 5759 5755 5751 5747 5743 5738 5734
5800 5802 5802 5802 5802 5803 5803 5804 5804 5804 5804 5804 5804 5804 5804 5803 5802 5801 5800 5798 5797 5795 5793 5791 5789 5786 5784 5781 5779 5776 5773 5770 5766 5763 5760 5756 5752 5748 5744 5740 5735 5731 5727 5722
5793 5794 5794 5795 5795 5796 5796 5797 5797 5797 5797 5797 5797 5796 5796 5795 5794 5793 5791 5790 5788 5786 5784 5782 5779 5777 5774 5771 5768 5765 5762 5759 5755 5752 5748 5744 5740 5736 5731 5727 5722 5718 5714 5709
5785 5786 5786 5787 5788 5788 5788 5788 5788 5788 5788 5788 5788 5787 5787 5786 5785 5783 5782 5780 5778 5776 5774 5772 5769 5766 5763 5760 5757 5754 5751 5747 5744 5740 5736 5732 5728 5724 5719 5714 5709 5704 5700 5696
5776 5776 5777 5778 5778 5778 5779 5779 5779 5779 5779 5778 5778 5777 5777 5776 5775 5773 5772 5770 5768 5766 5764 5761 5758 5755 5752 5749 5746 5742 5739 5735 5732 5728 5723 5719 5715 5711 5707 5702 5696 5691 5686 5681
5766 5767 5767 5768 5768 5768 5768 5768 5768 5768 5768 5768 5767 5767 5766 5765 5764 5762 5761 5759 5757 5755 5752 5749 5746 5743 5739 5736 5733 5730 5727 5723 5719 5715 5711 5707 5702 5697 5692 5688 5683 5678 5673 5667
5756 5756 5757 5758 5758 5758 5758 5758 5758 5757 5757 5757 5756 5755 5755 5754 5752 5751 5749 5747 5745 5743 5740 5737 5734 5731 5727 5724 5721 5717 5714 5710 5706 5702 5697 5693 5688 5684 5679 5674 5669 5664 5659 5654
5746 5746 5746 5747 5747 5747 5747 5747 5747 5746 5746 5745 5745 5744 5743 5742 5740 5739 5737 5735 5732 5730 5727 5724 5721 5717 5714 5711 5707 5704 5700 5696 5692 5688 5684 5679 5674 5669 5664 5659 5654 5649 5644 5639
5735 5736 5736 5736 5736 5736 5736 5736 5736 5735 5735 5734 5733 5732 5731 5729 5728 5726 5724 5722 5719 5717 5714 5711 5707 5704 5700 5697 5693 5690 5686 5682 5678 5674 5669 5665 5660 5655 5649 5644 5639 5635 5629 5624
5724 5725 5725 5725 5725 5725 5725 5724 5724 5723 5723 5722 5720 5719 5718 5717 5715 5713 5710 5708 5705 5703 5699 5696 5693 5690 5686 5683 5679 5675 5672 5668 5663 5659 5654 5650 5645 5639 5634 5629 5624 5619 5614 5609
5712 5713 5713 5713 5713 5713 5713 5712 5712 5711 5710 5709 5708 5706 5705 5703 5701 5699 5696 5694 5691 5688 5685 5681 5678 5675 5671 5668 5664 5660 5656 5652 5648 5644 5639 5634 5629 5624 5619 5614 5609 5603 5598 5593
5700 5700 5700 5700 5700 5700 5700 5699 5698 5698 5696 5695 5694 5692 5690 5688 5686 5684 5681 5679 5676 5673 5670 5666 5663 5660 5656 5652 5648 5645 5641 5636 5632 5628 5623 5618 5613 5608 5603 5597 5592 5587 5581 5576
5688 5688 5688 5688 5687 5687 5686 5685 5685 5684 5682 5681 5679 5678 5676 5673 5671 5668 5666 5664 5661 5657 5654 5651 5647 5644 5640 5636 5632 5629 5625 5620 5616 5611 5606 5601 5597 5591 5586 5581 5575 5570 5564 5559
5675 5675 5675 5675 5674 5674 5673 5672 5670 5669 5668 5666 5664 5662 5660 5658 5655 5653 5650 5647 5644 5641 5638 5634 5631 5627 5623 5620 5616 5612 5608 5603 5599 5594 5589 5584 5579 5574 5569 5564 5559 5553 5548 5542
5662 5662 5661 5661 5660 5660 5659 5657 5656 5654 5653 5651 5649 5646 5644 5642 5639 5636 5634 5631 5627 5624 5620 5617 5613 5610 5606 5602 5598 5594 5590 5586 5582 5577 5572 5567 5562 5557 5552 5547 5542 5536 5531 5526
5648 5648 5647 5647 5646 5645 5644 5642 5641 5639 5637 5635 5633 5630 5627 5625 5622 5619 5616 5613 5609 5606 5603 5599 5596 5592 5588 5584 5581 5577 5573 5568 5564 5559 5555 5550 5545 5539 5534 5530 5525 5520 5515 5510
5633 5633 5632 5631 5630 5629 5628 5627 5625 5623 5621 5619 5617 5614 5610 5607 5605 5602 5598 5595 5592 5588 5585 5581 5577 5574 5570 5566 5562 5558 5554 5550 5546 5541 5537 5532 5527 5523 5518 5513 5508 5503 5498 5494
5619 5618 5617 5616 5614 5613 5611 5610 5608 5606 5604 5601 5599 5596 5593 5590 5587 5583 5580 5577 5573 5569 5566 5562 5559 5555 5551 5548 5544 5540 5536 5532 5528 5523 5519 5514 5510 5505 5501 5496 5491 5486 5482 5477
5604 5602 5601 5600 5598 5596 5594 5593 5591 5589 5586 5584 5581 5579 5575 5572 5569 5565 5562 5559 5555 5551 5548 5544 5540 5537 5533 5529 5525 5521 5518 5514 5510 5505 5501 5497 5493 5489 5484 5479 5475 5470 5466 5462